Weather in Glogow

Poland     51°39′32″N   16°05′15″E
temp.,
°C
wind,
m/s
gust,
m/s
humid.,
%
clouds,
%
prec.,
mm/h
press.,
hPa
HPBL,
m
20 april, tue
tue2023:00+8wsw118720 0.3 101710
02:00+7wsw11915 0.6 101610
05:00+6wsw229220 0.0 101611
08:00+9sw118785 0.0 1017150
11:00+13ssw226710 0.1 1016584
14:00+16sw224513 0.3 10141782
17:00+16wnw225292 0.0 10131151
20:00+11nw3479100 1.0 101377
21 april, wed
wed2123:00+10w227976 0.1 101325
02:00+7wnw228578 0.1 101327
05:00+6w34864 0.0 101364
08:00+7wnw47763 0.0 1014282
11:00+12wnw56580 0.0 10131134
14:00+15wnw454672 0.0 10122193
17:00+14w3558100 0.0 1011363
20:00+11wsw376287 0.0 1011146
22 april, thu
thu2223:00+7nw4108890 0.0 1014567
02:00+6w5979100 0.1 1014747
05:00+3w61179100 0.0 1015742
08:00+3w7107272 0.0 10161093
11:00+7w8115199 0.1 10161960
14:00+9w91149100 0.1 10152284
17:00+8w795990 0.8 10151679
20:00+4wnw378369 1.8 1017169
23 april, fri
fri2323:00+3wsw488998 0.2 1017177
02:00+2w6139082 0.3 1018429
05:00+1w6149184 0.0 1020490
08:00+3w712843 0.0 1021613
11:00+5wnw6882100 0.3 1022892
14:00+8wnw6870100 0.7 10221344
17:00+11nw584689 0.4 10222359
20:00+5n34520 0.4 102453
24 april, sat
sat2423:00+3s22560 0.0 102413
02:00+2ssw4106734 0.0 1023171
05:00+2wsw5128143 0.0 1022298
08:00+5w612785 0.0 1022661
11:00+9wnw71059100 0.0 10211645
14:00+8wnw5966100 0.1 10221355
17:00+8nw597060 0.3 1022884
20:00+6nw3779100 0.4 1023316